Regional Weather Roundup
Issued by NWS Raleigh/Durham, NC

Home | Current Version | Previous Version | Text Only | Print | Product List | Glossary On
Versions: 1 2 3 4 5 6 7 8 9 10 11 12 13 14 15 16 17 18 19 20 21 22 23 24 25 26 27 28 29 30 31 32 33 34 35 36 37 38 39 40 41 42 43 44 45 46 47 48 49 50
742
ASUS42 KRAH 121410
RWRRAH
NORTH CAROLINA WEATHER ROUNDUP
NATIONAL WEATHER SERVICE RALEIGH NC
900 AM EST FRI FEB 12 2016

NOTE: "FAIR" INDICATES FEW OR NO CLOUDS BELOW 12,000 FEET WITH NO
SIGNIFICANT WEATHER AND/OR OBSTRUCTIONS TO VISIBILITY.

NCZ001-053-055-056-065-067-121500-
WESTERN NORTH CAROLINA

CITY           SKY/WX    TMP DP  RH WIND       PRES   REMARKS
ASHEVILLE      CLOUDY    30  19  63 S5        30.12F WCI  25
JEFFERSON      CLOUDY    25  13  60 SE5       30.05R WCI  19
MORGANTON      CLOUDY    31  11  42 CALM      30.23S
HICKORY        CLOUDY    29   8  41 NE5       30.19R WCI  24
RUTHERFORDTON  CLOUDY    31  17  56 CALM      30.19S
MOUNT AIRY     CLOUDY    26   6  42 E5        30.21S WCI  21
BOONE          PTSUNNY   26  13  58 S5        30.06S WCI  21
$$

NCZ021-022-025-041-071-084-088-121500-
CENTRAL NORTH CAROLINA

CITY           SKY/WX    TMP DP  RH WIND       PRES   REMARKS
CHARLOTTE      CLOUDY    31   5  33 NE8       30.21S WCI  23
GREENSBORO     CLOUDY    26   5  40 E7        30.20F WCI  18
WINSTON-SALEM  CLOUDY    26   5  40 NE6       30.22F WCI  19
RALEIGH-DURHAM CLOUDY    27   7  42 E9        30.25F WCI  18
FORT BRAGG     MOSUNNY   32   9  37 NE9       30.22S WCI  24
FAYETTEVILLE   CLOUDY    31  10  41 NE14      30.21F WCI  21
BURLINGTON     CLOUDY    26   5  40 NE5       30.22F WCI  20
LAURINBURG     CLOUDY    31   9  39 E9        30.23F WCI  23
$$

NCZ011-015-027-028-043-044-047-080-103-121500-
NORTHEASTERN NORTH CAROLINA

CITY           SKY/WX    TMP DP  RH WIND       PRES   REMARKS
ROCKY MT-WILSO CLOUDY    28  10  46 NE5       30.29F WCI  23
GREENVILLE     CLOUDY    30  18  59 E6        30.29F WCI  24
WASHINGTON     CLOUDY    30  18  62 E5        30.29S WCI  25
ELIZABETH CITY CLOUDY    29  17  61 NE10      30.31F WCI  20
MANTEO         CLOUDY    32  21  63 NE12      30.29F WCI  23
CAPE HATTERAS  CLOUDY    37  23  56 E6        30.29R WCI  32
$$

NCZ078-087-090-091-093-098-101-121500-
SOUTHEASTERN NORTH CAROLINA

CITY           SKY/WX    TMP DP  RH WIND       PRES   REMARKS
LUMBERTON      CLOUDY    32  12  43 E9        30.21F WCI  24
GOLDSBORO      NOT AVBL
KINSTON        MOSUNNY   30  18  59 NE9       30.27F WCI  22
KENANSVILLE    CLOUDY    31  14  48 CALM      30.27S
NEW BERN       CLOUDY    32  21  64 E8        30.28F WCI  25
CHERRY POINT   CLOUDY    36  24  62 NE9       30.27F WCI  29
BEAUFORT       CLOUDY    36  19  50 NE9G17    30.25F WCI  29
JACKSONVILLE   CLOUDY    33  17  51 NE8       30.25F WCI  26
WILMINGTON     LGT RAIN  33  26  75 NE9       30.22F WCI  25
$$





USA.gov is the U.S. government's official web portal to all federal, state and local government web resources and services.